| time (UTC) | temp F | wind direction | speed knots | gust knots | rain 1hr in | rain 24hr in | rain mn in | humidity % | barometer mb |
| 20260505101106 | 63 | 241 | 0.9 | 2.6 | 0.00 | 0.00 | 0.00 | 82 | 995.9 |
| 20260505100606 | 64 | 255 | 0.9 | 2.6 | 0.00 | 0.00 | 0.00 | 80 | 995.8 |
| 20260505100107 | 64 | 238 | 0.9 | 2.6 | 0.00 | 0.00 | 0.00 | 80 | 995.7 |
| 20260505095837 | 64 | 228 | 0.9 | 2.6 | 0.00 | 0.00 | 0.00 | 80 | 995.6 |
| 20260505095100 | 64 | 237 | 0.9 | 1.7 | 0.00 | 0.00 | 0.00 | 79 | 995.5 |
| 20260505094559 | 64 | 233 | 0.9 | 3.5 | 0.00 | 0.00 | 0.00 | 79 | 995.5 |
| 20260505094057 | 63 | 229 | 0.9 | 3.5 | 0.00 | 0.00 | 0.00 | 79 | 995.6 |
| 20260505093556 | 64 | 208 | 0.9 | 4.3 | 0.00 | 0.00 | 0.00 | 79 | 995.7 |
| 20260505093056 | 64 | 229 | 0.9 | 4.3 | 0.00 | 0.00 | 0.00 | 78 | 995.7 |
| 20260505092554 | 64 | 227 | 0.9 | 3.5 | 0.00 | 0.00 | 0.00 | 78 | 995.8 |
| 20260505092052 | 64 | 245 | 0.9 | 3.5 | 0.00 | 0.00 | 0.00 | 78 | 995.7 |
| 20260505091553 | 64 | 230 | 0.9 | 3.5 | 0.00 | 0.00 | 0.00 | 78 | 995.7 |
| 20260505091052 | 64 | 240 | 0.9 | 3.5 | 0.00 | 0.00 | 0.00 | 77 | 995.8 |
| 20260505090553 | 64 | 217 | 0.9 | 3.5 | 0.00 | 0.00 | 0.00 | 77 | 995.8 |
| 20260505090050 | 64 | 251 | 0.9 | 4.3 | 0.00 | 0.00 | 0.00 | 77 | 995.8 |
| 20260505085548 | 64 | 230 | 1.7 | 6.1 | 0.00 | 0.00 | 0.00 | 77 | 995.8 |
| 20260505085048 | 64 | 252 | 2.6 | 6.1 | 0.00 | 0.00 | 0.00 | 76 | 995.8 |
| 20260505084923 | 64 | 155 | 1.7 | 7.0 | 0.00 | 0.00 | 0.00 | 76 | 995.6 |
| 20260505084819 | 64 | 215 | 2.6 | 7.0 | 0.00 | 0.00 | 0.00 | 76 | 995.6 |
| 20260505083548 | 64 | 207 | 2.6 | 6.1 | 0.00 | 0.00 | 0.00 | 76 | 995.6 |
| 20260505083048 | 64 | 218 | 2.6 | 6.1 | 0.00 | 0.00 | 0.00 | 76 | 995.6 |
| 20260505082548 | 64 | 274 | 1.7 | 5.2 | 0.00 | 0.00 | 0.00 | 75 | 995.6 |
| 20260505082312 | 64 | 260 | 2.6 | 5.2 | 0.00 | 0.00 | 0.00 | 75 | 995.6 |
| 20260505081536 | 65 | 241 | 2.6 | 7.8 | 0.00 | 0.00 | 0.00 | 75 | 995.6 |
| 20260505081030 | 65 | 222 | 2.6 | 7.8 | 0.00 | 0.00 | 0.00 | 75 | 995.7 |
| 20260505080524 | 65 | 251 | 3.5 | 7.8 | 0.00 | 0.00 | 0.00 | 75 | 995.7 |
| 20260505080017 | 65 | 260 | 3.5 | 7.8 | 0.00 | 0.00 | 0.00 | 74 | 995.7 |
| 20260505075512 | 65 | 251 | 3.5 | 9.6 | 0.00 | 0.00 | 0.00 | 74 | 995.7 |
| 20260505075005 | 65 | 243 | 4.3 | 9.6 | 0.00 | 0.00 | 0.00 | 74 | 995.6 |
| 20260505074500 | 65 | 207 | 2.6 | 9.6 | 0.00 | 0.00 | 0.00 | 74 | 995.6 |
| 20260505074225 | 65 | 229 | 2.6 | 9.6 | 0.00 | 0.00 | 0.00 | 74 | 995.7 |
| 20260505073447 | 65 | 226 | 2.6 | 9.6 | 0.00 | 0.00 | 0.00 | 74 | 995.5 |
| 20260505072942 | 65 | 238 | 3.5 | 11.3 | 0.00 | 0.00 | 0.00 | 74 | 995.7 |
| 20260505072435 | 65 | 259 | 3.5 | 11.3 | 0.00 | 0.00 | 0.00 | 73 | 995.7 |
| 20260505071930 | 65 | 236 | 2.6 | 9.6 | 0.00 | 0.00 | 0.00 | 73 | 995.7 |
| 20260505071423 | 65 | 257 | 3.5 | 8.7 | 0.00 | 0.00 | 0.00 | 73 | 995.7 |
| 20260505070918 | 65 | 254 | 3.5 | 8.7 | 0.00 | 0.00 | 0.00 | 73 | 995.8 |
| 20260505070412 | 66 | 251 | 3.5 | 8.7 | 0.00 | 0.00 | 0.00 | 73 | 995.8 |
| 20260505065906 | 66 | 253 | 4.3 | 11.3 | 0.00 | 0.00 | 0.00 | 72 | 995.9 |
| 20260505065400 | 66 | 266 | 5.2 | 12.2 | 0.00 | 0.00 | 0.00 | 72 | 996.1 |
| 20260505064853 | 66 | 256 | 4.3 | 12.2 | 0.00 | 0.00 | 0.00 | 72 | 996.1 |
| 20260505064349 | 66 | 250 | 3.5 | 11.3 | 0.00 | 0.00 | 0.00 | 72 | 995.9 |
| 20260505063841 | 66 | 188 | 4.3 | 11.3 | 0.00 | 0.00 | 0.00 | 72 | 996.3 |
| 20260505063336 | 66 | 248 | 5.2 | 11.3 | 0.00 | 0.00 | 0.00 | 72 | 996.3 |
| 20260505062829 | 66 | 286 | 4.3 | 11.3 | 0.00 | 0.00 | 0.00 | 72 | 996.3 |
| 20260505062324 | 66 | 264 | 3.5 | 11.3 | 0.00 | 0.00 | 0.00 | 72 | 996.5 |
| 20260505061818 | 66 | 237 | 4.3 | 10.4 | 0.00 | 0.00 | 0.00 | 72 | 996.7 |
| 20260505061312 | 66 | 248 | 4.3 | 11.3 | 0.00 | 0.00 | 0.00 | 72 | 996.9 |
| 20260505060806 | 66 | 249 | 3.5 | 11.3 | 0.00 | 0.00 | 0.00 | 72 | 997.0 |
| 20260505060259 | 66 | 267 | 3.5 | 12.2 | 0.00 | 0.00 | 0.00 | 71 | 996.9 |
| 20260505055754 | 66 | 262 | 4.3 | 12.2 | 0.00 | 0.00 | 0.00 | 71 | 996.9 |
| 20260505055247 | 66 | 266 | 4.3 | 11.3 | 0.00 | 0.00 | 0.00 | 71 | 997.0 |
| 20260505054749 | 66 | 247 | 3.5 | 11.3 | 0.00 | 0.00 | 0.00 | 71 | 996.9 |
| 20260505054516 | 66 | 245 | 3.5 | 7.8 | 0.00 | 0.00 | 0.00 | 71 | 997.0 |
| 20260505053746 | 67 | 245 | 3.5 | 9.6 | 0.00 | 0.00 | 0.00 | 71 | 997.0 |
| 20260505053251 | 67 | 246 | 2.6 | 8.7 | 0.00 | 0.00 | 0.00 | 70 | 997.1 |
| 20260505053247 | 67 | 242 | 3.5 | 9.6 | 0.00 | 0.00 | 0.00 | 70 | 997.2 |
| 20260505052245 | 67 | 276 | 2.6 | 8.7 | 0.00 | 0.00 | 0.00 | 70 | 997.1 |
| 20260505051750 | 67 | 225 | 3.5 | 7.8 | 0.00 | 0.00 | 0.00 | 70 | 997.1 |
| 20260505051746 | 67 | 265 | 3.5 | 7.8 | 0.00 | 0.00 | 0.00 | 70 | 997.2 |
| 20260505050746 | 67 | 252 | 2.6 | 7.0 | 0.00 | 0.00 | 0.00 | 69 | 997.0 |
| 20260505050245 | 67 | 257 | 2.6 | 7.0 | 0.00 | 0.00 | 0.00 | 69 | 997.1 |
| 20260505041739 | 68 | 243 | 1.7 | 6.1 | 0.00 | 0.00 | 0.00 | 68 | 997.4 |
| 20260505041238 | 68 | 226 | 1.7 | 6.1 | 0.00 | 0.00 | 0.00 | 68 | 997.4 |
| 20260505041010 | 68 | 252 | 1.7 | 7.0 | 0.00 | 0.00 | 0.00 | 68 | 997.5 |
| 20260505040239 | 68 | 226 | 2.6 | 7.0 | 0.00 | 0.00 | 0.00 | 68 | 997.4 |
| 20260505035738 | 68 | 243 | 2.6 | 7.0 | 0.00 | 0.00 | 0.00 | 68 | 997.4 |
| 20260505035234 | 68 | 262 | 2.6 | 7.0 | 0.00 | 0.00 | 0.00 | 68 | 997.6 |
| 20260505034735 | 68 | 257 | 2.6 | 7.0 | 0.00 | 0.00 | 0.00 | 67 | 997.6 |
| 20260505034505 | 68 | 252 | 2.6 | 6.1 | 0.00 | 0.00 | 0.00 | 67 | 997.6 |
| 20260505033735 | 69 | 255 | 3.5 | 8.7 | 0.00 | 0.00 | 0.00 | 67 | 997.6 |
| 20260505033234 | 69 | 237 | 2.6 | 8.7 | 0.00 | 0.00 | 0.00 | 67 | 997.5 |
| 20260505032735 | 69 | 243 | 1.7 | 7.0 | 0.00 | 0.00 | 0.00 | 67 | 997.5 |
| 20260505032234 | 69 | 249 | 1.7 | 5.2 | 0.00 | 0.00 | 0.00 | 67 | 997.5 |
| 20260505031734 | 69 | 257 | 1.7 | 4.3 | 0.00 | 0.00 | 0.00 | 67 | 997.3 |
| 20260505031232 | 69 | 252 | 2.6 | 10.4 | 0.00 | 0.00 | 0.00 | 67 | 997.4 |
| 20260505030730 | 69 | 231 | 2.6 | 10.4 | 0.00 | 0.00 | 0.00 | 66 | 997.3 |
| 20260505030231 | 69 | 243 | 1.7 | 7.0 | 0.00 | 0.00 | 0.00 | 66 | 997.3 |
| 20260505025729 | 69 | 262 | 1.7 | 6.1 | 0.00 | 0.00 | 0.00 | 66 | 997.2 |
| 20260505025223 | 69 | 219 | 1.7 | 6.1 | 0.00 | 0.00 | 0.00 | 66 | 997.3 |
| 20260505024715 | 69 | 243 | 1.7 | 6.1 | 0.00 | 0.00 | 0.00 | 66 | 997.2 |
| 20260505024217 | 70 | 225 | 1.7 | 6.1 | 0.00 | 0.00 | 0.00 | 65 | 997.1 |
| 20260505023717 | 70 | 224 | 1.7 | 4.3 | 0.00 | 0.00 | 0.00 | 65 | 997.2 |
| 20260505023214 | 70 | 216 | 1.7 | 5.2 | 0.00 | 0.00 | 0.00 | 64 | 997.0 |
| 20260505022943 | 70 | 250 | 1.7 | 7.0 | 0.00 | 0.00 | 0.00 | 64 | 997.0 |
| 20260505022212 | 71 | 217 | 2.6 | 7.8 | 0.00 | 0.00 | 0.00 | 64 | 997.0 |
| 20260505021712 | 71 | 224 | 2.6 | 7.8 | 0.00 | 0.00 | 0.00 | 63 | 996.9 |
| 20260505021212 | 71 | 252 | 2.6 | 6.1 | 0.00 | 0.00 | 0.00 | 63 | 996.8 |
| 20260505020710 | 71 | 243 | 2.6 | 6.1 | 0.00 | 0.00 | 0.00 | 63 | 996.7 |
| 20260505020211 | 71 | 254 | 1.7 | 6.1 | 0.00 | 0.00 | 0.00 | 63 | 996.8 |
| 20260505015710 | 71 | 260 | 1.7 | 5.2 | 0.00 | 0.00 | 0.00 | 62 | 996.8 |
| 20260505015208 | 71 | 245 | 1.7 | 6.1 | 0.00 | 0.00 | 0.00 | 62 | 996.7 |
| 20260505014708 | 72 | 283 | 1.7 | 6.1 | 0.00 | 0.00 | 0.00 | 62 | 996.6 |
| 20260505014209 | 72 | 227 | 1.7 | 5.2 | 0.00 | 0.00 | 0.00 | 61 | 996.6 |
| 20260505013706 | 72 | 246 | 2.6 | 7.0 | 0.00 | 0.00 | 0.00 | 60 | 996.5 |
| 20260505013207 | 73 | 252 | 2.6 | 7.0 | 0.00 | 0.00 | 0.00 | 60 | 996.5 |
| 20260505012707 | 73 | 236 | 2.6 | 9.6 | 0.00 | 0.00 | 0.00 | 60 | 996.5 |
| 20260505012205 | 73 | 214 | 3.5 | 12.2 | 0.00 | 0.00 | 0.00 | 59 | 996.3 |
| 20260505011700 | 73 | 254 | 3.5 | 12.2 | 0.00 | 0.00 | 0.00 | 59 | 996.3 |
| 20260505011154 | 73 | 221 | 3.5 | 11.3 | 0.00 | 0.00 | 0.00 | 59 | 996.2 |
| 20260505010648 | 74 | 264 | 3.5 | 8.7 | 0.00 | 0.00 | 0.00 | 59 | 996.1 |
| 20260505010142 | 74 | 232 | 3.5 | 8.7 | 0.00 | 0.00 | 0.00 | 58 | 996.1 |
| 20260505005907 | 74 | 288 | 4.3 | 7.8 | 0.00 | 0.00 | 0.00 | 58 | 996.1 |
| 20260505005129 | 74 | 257 | 3.5 | 8.7 | 0.00 | 0.00 | 0.00 | 58 | 996.1 |
| 20260505004624 | 74 | 175 | 3.5 | 9.6 | 0.00 | 0.00 | 0.00 | 58 | 996.1 |
| 20260505004118 | 75 | 255 | 3.5 | 9.6 | 0.00 | 0.00 | 0.00 | 57 | 996.1 |
| 20260505003611 | 75 | 296 | 3.5 | 11.3 | 0.00 | 0.00 | 0.00 | 56 | 996.1 |
| 20260505003336 | 76 | 236 | 4.3 | 11.3 | 0.00 | 0.00 | 0.00 | 56 | 996.0 |
| 20260505003101 | 76 | 234 | 5.2 | 11.3 | 0.00 | 0.00 | 0.00 | 55 | 996.0 |
| 20260505002053 | 76 | 245 | 5.2 | 11.3 | 0.00 | 0.00 | 0.00 | 54 | 996.0 |
| 20260505001547 | 77 | 213 | 6.1 | 13.0 | 0.00 | 0.00 | 0.00 | 53 | 995.9 |
| 20260505001543 | 77 | 281 | 5.2 | 13.0 | 0.00 | 0.00 | 0.00 | 53 | 995.8 |
| 20260505000536 | 78 | 274 | 4.3 | 10.4 | 0.00 | 0.00 | 0.00 | 52 | 995.9 |
| 20260505000029 | 78 | 304 | 4.3 | 10.4 | 0.00 | 0.00 | 0.00 | 52 | 995.9 |
| 20260504235524 | 78 | 241 | 5.2 | 13.0 | 0.00 | 0.00 | 0.00 | 52 | 995.9 |
| 20260504235018 | 78 | 308 | 5.2 | 16.5 | 0.00 | 0.00 | 0.00 | 51 | 995.9 |
| 20260504234511 | 78 | 210 | 5.2 | 16.5 | 0.00 | 0.00 | 0.00 | 51 | 996.0 |
| 20260504234237 | 78 | 226 | 7.0 | 15.6 | 0.00 | 0.00 | 0.00 | 51 | 996.0 |
| 20260504233459 | 78 | 256 | 6.1 | 19.1 | 0.00 | 0.00 | 0.00 | 51 | 996.1 |
| 20260504232953 | 79 | 222 | 5.2 | 15.6 | 0.00 | 0.00 | 0.00 | 51 | 996.2 |
| 20260504232447 | 79 | 243 | 4.3 | 13.0 | 0.00 | 0.00 | 0.00 | 51 | 996.1 |
| 20260504231941 | 79 | 242 | 6.1 | 15.6 | 0.00 | 0.00 | 0.00 | 51 | 996.2 |
| 20260504231436 | 79 | 354 | 6.1 | 15.6 | 0.00 | 0.00 | 0.00 | 51 | 996.2 |
| 20260504230929 | 80 | 220 | 6.1 | 14.8 | 0.00 | 0.00 | 0.00 | 50 | 996.3 |
| 20260504230655 | 80 | 250 | 6.1 | 16.5 | 0.00 | 0.00 | 0.00 | 49 | 996.3 |
| 20260504225922 | 80 | 251 | 5.2 | 16.5 | 0.00 | 0.00 | 0.00 | 49 | 996.3 |
| 20260504225422 | 80 | 284 | 4.3 | 12.2 | 0.00 | 0.00 | 0.00 | 49 | 996.3 |
| 20260504224922 | 81 | 217 | 3.5 | 11.3 | 0.00 | 0.00 | 0.00 | 49 | 996.3 |
| 20260504224653 | 81 | 282 | 4.3 | 11.3 | 0.00 | 0.00 | 0.00 | 49 | 996.3 |
| 20260504223922 | 80 | 275 | 6.1 | 15.6 | 0.00 | 0.00 | 0.00 | 51 | 996.3 |
| 20260504223423 | 80 | 270 | 7.0 | 16.5 | 0.00 | 0.00 | 0.00 | 50 | 996.3 |
| 20260504223153 | 80 | 209 | 6.1 | 16.5 | 0.00 | 0.00 | 0.00 | 50 | 996.4 |
| 20260504222422 | 80 | 242 | 6.1 | 14.8 | 0.00 | 0.00 | 0.00 | 49 | 996.4 |
| 20260504221921 | 80 | 219 | 7.0 | 14.8 | 0.00 | 0.00 | 0.00 | 49 | 996.5 |
| 20260504221653 | 80 | 181 | 7.8 | 16.5 | 0.00 | 0.00 | 0.00 | 49 | 996.5 |
| 20260504221153 | 80 | 241 | 7.0 | 16.5 | 0.00 | 0.00 | 0.00 | 49 | 996.5 |
| 20260504220653 | 80 | 253 | 6.1 | 14.8 | 0.00 | 0.00 | 0.00 | 49 | 996.5 |
| 20260504215922 | 81 | 253 | 6.1 | 17.4 | 0.00 | 0.00 | 0.00 | 49 | 996.6 |
| 20260504215652 | 81 | 250 | 7.0 | 17.4 | 0.00 | 0.00 | 0.00 | 49 | 996.5 |
| 20260504214923 | 81 | 293 | 6.1 | 16.5 | 0.00 | 0.00 | 0.00 | 48 | 996.6 |
| 20260504214422 | 82 | 252 | 3.5 | 12.2 | 0.00 | 0.00 | 0.00 | 49 | 996.6 |
| 20260504213921 | 81 | 344 | 4.3 | 12.2 | 0.00 | 0.00 | 0.00 | 48 | 996.5 |
| 20260504213422 | 81 | 252 | 5.2 | 15.6 | 0.00 | 0.00 | 0.00 | 49 | 996.6 |
| 20260504212922 | 80 | 256 | 6.1 | 15.6 | 0.00 | 0.00 | 0.00 | 50 | 996.6 |
| 20260504212422 | 81 | 235 | 6.1 | 14.8 | 0.00 | 0.00 | 0.00 | 48 | 996.7 |
| 20260504211926 | 81 | 242 | 7.0 | 17.4 | 0.00 | 0.00 | 0.00 | 50 | 996.8 |
| 20260504211922 | 82 | 241 | 6.1 | 16.5 | 0.00 | 0.00 | 0.00 | 47 | 996.7 |
| 20260504210920 | 80 | 246 | 7.8 | 17.4 | 0.00 | 0.00 | 0.00 | 48 | 996.7 |
| 20260504210420 | 81 | 288 | 7.0 | 17.4 | 0.00 | 0.00 | 0.00 | 48 | 996.7 |
| 20260504205920 | 82 | 159 | 5.2 | 13.0 | 0.00 | 0.00 | 0.00 | 48 | 996.8 |
| 20260504205419 | 82 | 270 | 6.1 | 18.2 | 0.00 | 0.00 | 0.00 | 48 | 996.7 |
| 20260504204919 | 81 | 233 | 7.0 | 18.2 | 0.00 | 0.00 | 0.00 | 49 | 996.9 |
| 20260504204654 | 82 | 254 | 4.3 | 13.9 | 0.00 | 0.00 | 0.00 | 48 | 997.1 |
| 20260504204420 | 81 | 282 | 7.0 | 14.8 | 0.00 | 0.00 | 0.00 | 48 | 997.0 |
| 20260504203420 | 82 | 300 | 5.2 | 16.5 | 0.00 | 0.00 | 0.00 | 49 | 997.2 |
| 20260504202920 | 81 | 243 | 7.8 | 20.9 | 0.00 | 0.00 | 0.00 | 49 | 997.1 |
| 20260504202648 | 81 | 237 | 7.0 | 20.9 | 0.00 | 0.00 | 0.00 | 48 | 997.3 |
| 20260504202148 | 82 | 244 | 6.1 | 16.5 | 0.00 | 0.00 | 0.00 | 50 | 997.3 |
| 20260504201419 | 82 | 248 | 5.2 | 16.5 | 0.00 | 0.00 | 0.00 | 45 | 997.5 |
| 20260504200917 | 82 | 63 | 5.2 | 15.6 | 0.00 | 0.00 | 0.00 | 48 | 997.6 |
| 20260504200417 | 81 | 239 | 6.1 | 15.6 | 0.00 | 0.00 | 0.00 | 47 | 997.7 |
| 20260504195918 | 81 | 276 | 6.1 | 14.8 | 0.00 | 0.00 | 0.00 | 48 | 997.8 |
| 20260504195649 | 81 | 276 | 6.1 | 14.8 | 0.00 | 0.00 | 0.00 | 48 | 997.7 |
| 20260504194918 | 81 | 221 | 7.0 | 18.2 | 0.00 | 0.00 | 0.00 | 48 | 997.8 |
| 20260504194418 | 81 | 279 | 7.0 | 19.1 | 0.00 | 0.00 | 0.00 | 48 | 997.9 |
| 20260504194144 | 81 | 230 | 7.0 | 17.4 | 0.00 | 0.00 | 0.00 | 49 | 997.9 |
| 20260504193414 | 80 | 257 | 7.0 | 18.2 | 0.00 | 0.00 | 0.00 | 48 | 998.0 |
| 20260504192913 | 81 | 229 | 5.2 | 18.2 | 0.00 | 0.00 | 0.00 | 48 | 998.0 |
| 20260504192414 | 81 | 67 | 6.1 | 14.8 | 0.00 | 0.00 | 0.00 | 51 | 998.1 |
| 20260504191913 | 81 | 205 | 7.0 | 16.5 | 0.00 | 0.00 | 0.00 | 47 | 998.2 |
| 20260504191413 | 81 | 242 | 6.1 | 17.4 | 0.00 | 0.00 | 0.00 | 45 | 998.3 |
| 20260504190914 | 81 | 285 | 6.1 | 17.4 | 0.00 | 0.00 | 0.00 | 45 | 998.2 |
| 20260504190413 | 80 | 278 | 7.8 | 18.2 | 0.00 | 0.00 | 0.00 | 48 | 998.2 |
| 20260504185914 | 80 | 285 | 8.7 | 20.9 | 0.00 | 0.00 | 0.00 | 49 | 998.2 |
| 20260504185411 | 80 | 214 | 8.7 | 20.9 | 0.00 | 0.00 | 0.00 | 46 | 998.1 |
| 20260504184909 | 80 | 269 | 7.8 | 17.4 | 0.00 | 0.00 | 0.00 | 48 | 998.3 |
| 20260504184409 | 80 | 236 | 7.8 | 23.5 | 0.00 | 0.00 | 0.00 | 48 | 998.4 |
| 20260504183909 | 80 | 238 | 7.0 | 23.5 | 0.00 | 0.00 | 0.00 | 47 | 998.3 |
| 20260504183407 | 81 | 335 | 6.1 | 17.4 | 0.00 | 0.00 | 0.00 | 46 | 998.4 |
| 20260504182907 | 82 | 294 | 6.1 | 14.8 | 0.00 | 0.00 | 0.00 | 46 | 998.4 |
| 20260504182636 | 81 | 283 | 7.8 | 19.1 | 0.00 | 0.00 | 0.00 | 46 | 998.5 |
| 20260504181906 | 80 | 283 | 7.8 | 19.1 | 0.00 | 0.00 | 0.00 | 48 | 998.5 |
| 20260504181406 | 80 | 276 | 7.8 | 19.1 | 0.00 | 0.00 | 0.00 | 48 | 998.5 |
| 20260504181136 | 79 | 246 | 9.6 | 19.1 | 0.00 | 0.00 | 0.00 | 51 | 998.7 |
| 20260504180635 | 79 | 291 | 9.6 | 20.0 | 0.00 | 0.00 | 0.00 | 49 | 998.8 |
| 20260504175905 | 79 | 241 | 7.8 | 20.0 | 0.00 | 0.00 | 0.00 | 50 | 998.9 |
| 20260504175636 | 79 | 236 | 7.8 | 21.7 | 0.00 | 0.00 | 0.00 | 49 | 998.9 |
| 20260504175130 | 79 | 252 | 7.8 | 21.7 | 0.00 | 0.00 | 0.00 | 49 | 998.9 |
| 20260504174354 | 80 | 200 | 6.1 | 17.4 | 0.00 | 0.00 | 0.00 | 49 | 998.9 |
| 20260504173852 | 81 | 277 | 5.2 | 17.4 | 0.00 | 0.00 | 0.00 | 49 | 998.9 |
| 20260504173351 | 80 | 302 | 5.2 | 18.2 | 0.00 | 0.00 | 0.00 | 50 | 999.0 |
| 20260504172851 | 79 | 276 | 7.0 | 24.3 | 0.00 | 0.00 | 0.00 | 51 | 999.1 |
| 20260504172625 | 79 | 282 | 6.1 | 18.2 | 0.00 | 0.00 | 0.00 | 46 | 999.2 |
| 20260504172349 | 79 | 237 | 7.8 | 24.3 | 0.00 | 0.00 | 0.00 | 49 | 999.2 |
| 20260504171349 | 80 | 243 | 7.0 | 18.2 | 0.00 | 0.00 | 0.00 | 47 | 999.1 |
| 20260504170850 | 79 | 273 | 8.7 | 18.2 | 0.00 | 0.00 | 0.00 | 48 | 999.2 |
| 20260504170347 | 79 | 67 | 7.8 | 18.2 | 0.00 | 0.00 | 0.00 | 47 | 999.3 |
| 20260504160329 | 79 | 258 | 6.1 | 21.7 | 0.00 | 0.00 | 0.00 | 48 | 999.9 |
| 20260504150723 | 75 | 226 | 4.3 | 10.4 | 0.00 | 0.00 | 0.00 | 57 | 1000.5 |
| 20260504150448 | 75 | 125 | 3.5 | 10.4 | 0.00 | 0.00 | 0.00 | 56 | 1000.4 |
| 20260504141116 | 71 | 200 | 2.6 | 7.8 | 0.00 | 0.00 | 0.00 | 63 | 1000.9 |
| 20260504140611 | 71 | 283 | 2.6 | 7.8 | 0.00 | 0.00 | 0.00 | 65 | 1000.9 |
| 20260504140105 | 71 | 255 | 2.6 | 7.8 | 0.00 | 0.00 | 0.00 | 64 | 1000.9 |
| 20260504130541 | 64 | 248 | 0.9 | 4.3 | 0.00 | 0.00 | 0.00 | 79 | 1000.9 |
| 20260504130537 | 64 | 250 | 1.7 | 4.3 | 0.00 | 0.00 | 0.00 | 77 | 1000.8 |
| 20260504110456 | 57 | 262 | 0.9 | 2.6 | 0.00 | 0.00 | 0.00 | 86 | 1000.1 |